This is the latest recevied weather packets stored in our database for station/object HOWARD. If no packets are shown the sender has not sent any weather packets the latest 10 day(s).
| Time | Temp. | Humidity | Pressure | Rain* | Wind** | Luminosity | Snow |
|---|---|---|---|---|---|---|---|
| 1788039879 | 9.44° C | 68% | 1013.6 hPa | 0 mm | - | - | - |
| 1788039279 | 9.44° C | 68% | 1013.6 hPa | 0 mm | - | - | - |
| 1788038679 | 10° C | 66% | 1013.7 hPa | 0 mm | - | - | - |
| 1788038079 | 10° C | 67% | 1013.8 hPa | 0 mm | - | - | - |
| 1788037479 | 10° C | 66% | 1013.8 hPa | 0 mm | - | - | - |
| 1788036879 | 9.44° C | 49% | 1013.6 hPa | 0 mm | - | - | - |
| 1788036325 | 10° C | 61% | 1013.8 hPa | 0 mm | - | - | - |
| 1788036279 | 10° C | 61% | 1013.8 hPa | 0 mm | - | - | - |
| 1788035679 | 10° C | 42% | 1013.7 hPa | 0 mm | - | - | - |
| 1788035079 | 10° C | 41% | 1013.6 hPa | 0 mm | - | - | - |
| 1788034479 | 10° C | 49% | 1013.6 hPa | 0 mm | - | - | - |
| 1788033879 | 9.44° C | 56% | 1013.6 hPa | 0 mm | - | - | - |
| 1788033279 | 9.44° C | 47% | 1013.4 hPa | 0 mm | - | - | - |
| 1788032679 | 8.89° C | 71% | 1014.1 hPa | 0 mm | - | - | - |
| 1788032079 | 8.33° C | 71% | 1014 hPa | 0 mm | - | - | - |
| 1788031479 | 8.89° C | 67% | 1014 hPa | 0 mm | - | - | - |
| 1788030879 | 9.44° C | 64% | 1014.1 hPa | 0 mm | - | - | - |
| 1788030279 | 10° C | 62% | 1014.1 hPa | 0 mm | - | - | - |
| 1788029679 | 10° C | 54% | 1013.9 hPa | 0 mm | - | - | - |
| 1788029079 | 10° C | 56% | 1014.1 hPa | 0 mm | - | - | - |
| 1788028533 | 10° C | 61% | 1013.9 hPa | 0 mm | - | - | - |
| 1788028479 | 10° C | 61% | 1013.9 hPa | 0 mm | - | - | - |
| 1788027879 | 10° C | 55% | 1013.8 hPa | 0 mm | - | - | - |
| 1788027279 | 9.44° C | 60% | 1013.7 hPa | 0 mm | - | - | - |
| 1788026750 | 9.44° C | 61% | 1013.7 hPa | 0 mm | - | - | - |
* Rain latest hour (hover to see other rain measurements)
** Current wind speed in m/s (hover to see current wind gust speed)